KC7O Weather Reports


Display with metric or nautical units.
time (UTC)temp
F
wind
direction
speed
MPH
gust
MPH
rain 1hr
in
rain 24hr
in
rain mn
in
humidity
%
barometer
mb
20260903171320 73 143 2.0 6.0 0.00 0.00 0.00 63 1013.2
20260903170822 73 158 2.0 4.0 0.00 0.00 0.00 64 1013.1
20260903170320 73 144 2.0 5.0 0.00 0.00 0.00 64 1013.1
20260903165819 72 217 2.0 5.0 0.00 0.00 0.00 64 1013.1
20260903165339 72 184 2.0 5.0 0.00 0.00 0.00 65 1013.0
20260903164837 72 121 2.0 4.0 0.00 0.00 0.00 67 1013.0
20260903164334 72 134 2.0 4.0 0.00 0.00 0.00 68 1013.1
20260903163832 71 217 2.0 4.0 0.00 0.00 0.00 69 1013.1
20260903163331 71 141 1.0 4.0 0.00 0.00 0.00 69 1013.2
20260903162831 71 136 2.0 4.0 0.00 0.00 0.00 68 1013.2
20260903162331 71 87 2.0 7.0 0.00 0.00 0.00 70 1013.2
20260903161828 71 165 3.0 7.0 0.00 0.00 0.00 69 1013.2
20260903161326 71 224 0.0 5.0 0.00 0.00 0.00 70 1013.3
20260903160846 71 131 2.0 5.0 0.00 0.00 0.00 70 1013.3
20260903160322 70 131 1.0 4.0 0.00 0.00 0.00 71 1013.3
20260903155820 70 92 2.0 4.0 0.00 0.00 0.00 71 1013.3
20260903155318 70 226 2.0 4.0 0.00 0.00 0.00 73 1013.3
20260903154819 70 169 1.0 3.0 0.00 0.00 0.00 73 1013.3
20260903154339 70 117 1.0 3.0 0.00 0.00 0.00 74 1013.3
20260903153820 70 162 2.0 3.0 0.00 0.00 0.00 74 1013.2
20260903153319 70 140 0.0 2.0 0.00 0.00 0.00 74 1013.2
20260903152818 70 152 0.0 2.0 0.00 0.00 0.00 75 1013.2
20260903152319 69 141 0.0 3.0 0.00 0.00 0.00 76 1013.2
20260903151837 69 141 1.0 3.0 0.00 0.00 0.00 76 1013.2
20260903151337 69 164 1.0 2.0 0.00 0.00 0.00 76 1013.1
20260903150834 69 132 0.0 1.0 0.00 0.00 0.00 77 1013.1
20260903150334 69 140 0.0 2.0 0.00 0.00 0.00 78 1013.1
20260903145831 69 166 0.0 2.0 0.00 0.00 0.00 78 1013.2
20260903145329 69 136 0.0 1.0 0.00 0.00 0.00 80 1013.1
20260903144829 68 170 0.0 1.0 0.00 0.00 0.00 81 1013.1
20260903144326 68 137 0.0 0.0 0.00 0.00 0.00 83 1012.9
20260903143822 66 136 0.0 0.0 0.00 0.00 0.00 85 1012.8
20260903143324 66 136 0.0 0.0 0.00 0.00 0.00 86 1012.7
20260903142825 65 136 0.0 0.0 0.00 0.00 0.00 86 1012.6
20260903142346 65 136 0.0 0.0 0.00 0.00 0.00 89 1012.6
20260903141824 63 136 0.0 0.0 0.00 0.00 0.00 90 1012.6
20260903141322 61 136 0.0 0.0 0.00 0.00 0.00 89 1012.6
20260903140840 60 136 0.0 0.0 0.00 0.00 0.00 89 1012.5
20260903140338 60 136 0.0 0.0 0.00 0.00 0.00 88 1012.5
20260903135838 60 136 0.0 0.0 0.00 0.00 0.00 88 1012.5
20260903135338 59 136 0.0 0.0 0.00 0.00 0.00 88 1012.5
20260903134857 59 136 0.0 0.0 0.00 0.00 0.00 89 1012.5
20260903134334 59 136 0.0 0.0 0.00 0.00 0.00 88 1012.5
20260903133834 59 136 0.0 0.0 0.00 0.00 0.00 88 1012.5
20260903133335 59 136 0.0 0.0 0.00 0.00 0.00 88 1012.4
20260903132834 59 136 0.0 0.0 0.00 0.00 0.00 88 1012.5
20260903132333 59 136 0.0 0.0 0.00 0.00 0.00 87 1012.5
20260903131832 59 136 0.0 0.0 0.00 0.00 0.00 87 1012.5
20260903131332 59 136 0.0 0.0 0.00 0.00 0.00 87 1012.4
20260903130830 59 136 0.0 0.0 0.00 0.00 0.00 87 1012.5
20260903130327 59 136 0.0 0.0 0.00 0.00 0.00 87 1012.5
20260903125828 60 136 0.0 0.0 0.00 0.00 0.00 87 1012.5
20260903125330 59 136 0.0 0.0 0.00 0.00 0.00 87 1012.5
20260903124832 60 136 0.0 0.0 0.00 0.00 0.00 87 1012.4
20260903124331 60 136 0.0 0.0 0.00 0.00 0.00 87 1012.4
20260903123829 60 136 0.0 0.0 0.00 0.00 0.00 87 1012.4
20260903123328 60 136 0.0 0.0 0.00 0.00 0.00 87 1012.4
20260903122832 60 136 0.0 0.0 0.00 0.00 0.00 87 1012.5
20260903122330 60 136 0.0 0.0 0.00 0.00 0.00 87 1012.4
20260903121829 60 136 0.0 0.0 0.00 0.00 0.00 87 1012.6
20260903121326 60 136 0.0 0.0 0.00 0.00 0.00 87 1012.6
20260903120823 60 136 0.0 0.0 0.00 0.00 0.00 87 1012.5
20260903120321 60 136 0.0 0.0 0.00 0.00 0.00 86 1012.5
20260903115820 60 136 0.0 0.0 0.00 0.00 0.00 86 1012.5
20260903115324 60 136 0.0 0.0 0.00 0.00 0.00 86 1012.5
20260903114842 60 136 0.0 0.0 0.00 0.00 0.00 86 1012.6
20260903114319 60 136 0.0 0.0 0.00 0.00 0.00 86 1012.7
20260903113820 60 136 0.0 0.0 0.00 0.00 0.00 86 1012.7
20260903113327 60 136 0.0 0.0 0.00 0.00 0.00 85 1012.7
20260903112825 61 136 0.0 0.0 0.00 0.00 0.00 85 1012.7
20260903112323 61 136 0.0 0.0 0.00 0.00 0.00 85 1012.7
20260903111843 61 136 0.0 0.0 0.00 0.00 0.00 85 1012.8
20260903111339 61 136 0.0 0.0 0.00 0.00 0.00 85 1012.7
20260903110819 61 136 0.0 0.0 0.00 0.00 0.00 85 1012.7
20260903110338 61 136 0.0 0.0 0.00 0.00 0.00 85 1012.8
20260903105836 61 136 0.0 0.0 0.00 0.00 0.00 84 1012.9
20260903105355 61 136 0.0 0.0 0.00 0.00 0.00 84 1012.8
20260903104834 61 136 0.0 0.0 0.00 0.00 0.00 84 1012.8
20260903104333 61 136 0.0 0.0 0.00 0.00 0.00 84 1012.9
20260903103851 61 136 0.0 0.0 0.00 0.00 0.00 84 1012.9
20260903103328 61 136 0.0 0.0 0.00 0.00 0.00 84 1012.8
20260903102829 62 136 0.0 0.0 0.00 0.00 0.00 83 1012.9
20260903102328 62 136 0.0 0.0 0.00 0.00 0.00 82 1012.9
20260903101828 62 136 0.0 0.0 0.00 0.00 0.00 82 1012.9
20260903101326 62 136 0.0 0.0 0.00 0.00 0.00 82 1012.9
20260903100823 62 136 0.0 0.0 0.00 0.00 0.00 82 1013.0
20260903100328 62 136 0.0 0.0 0.00 0.00 0.00 82 1013.0
20260903095826 62 136 0.0 0.0 0.00 0.00 0.00 82 1013.0
20260903095327 62 136 0.0 0.0 0.00 0.00 0.00 82 1013.0
20260903094824 62 136 0.0 0.0 0.00 0.00 0.00 81 1013.0
20260903094321 62 136 0.0 0.0 0.00 0.00 0.00 81 1013.0
20260903093859 63 136 0.0 0.0 0.00 0.00 0.00 80 1013.0
20260903093337 63 136 0.0 0.0 0.00 0.00 0.00 80 1013.0
20260903092836 63 136 0.0 0.0 0.00 0.00 0.00 80 1013.2
20260903092334 63 136 0.0 0.0 0.00 0.00 0.00 80 1013.1
20260903091852 63 136 0.0 0.0 0.00 0.00 0.00 79 1013.2
20260903091348 63 136 0.0 0.0 0.00 0.00 0.00 79 1013.3
20260903090830 63 136 0.0 0.0 0.00 0.00 0.00 79 1013.3
20260903090334 63 136 0.0 1.0 0.00 0.00 0.00 79 1013.3
20260903085821 63 136 0.0 1.0 0.00 0.00 0.00 79 1013.4
20260903085348 63 137 0.0 1.0 0.00 0.00 0.00 79 1013.4
20260903084841 63 137 0.0 0.0 0.00 0.00 0.00 78 1013.4
20260903084356 64 137 0.0 0.0 0.00 0.00 0.00 78 1013.5
20260903083841 64 137 0.0 1.0 0.00 0.00 0.00 77 1013.5
20260903083330 64 137 0.0 1.0 0.00 0.00 0.00 77 1013.5
20260903082855 64 137 0.0 1.0 0.00 0.00 0.00 76 1013.5
20260903081854 63 162 0.0 0.0 0.00 0.00 0.00 76 1013.7
20260903080836 63 187 0.0 0.0 0.00 0.00 0.00 77 1013.8
20260903080333 63 187 0.0 0.0 0.00 0.00 0.00 77 1013.8
20260903075820 63 187 0.0 0.0 0.00 0.00 0.00 76 1013.8
20260903075338 64 187 0.0 0.0 0.00 0.00 0.00 76 1013.9
20260903074900 64 187 0.0 0.0 0.00 0.00 0.00 76 1013.8
20260903074320 64 187 0.0 0.0 0.00 0.00 0.00 76 1013.8
20260903073820 64 187 0.0 0.0 0.00 0.00 0.00 76 1013.8
20260903073320 64 187 0.0 0.0 0.00 0.00 0.00 76 1013.8
20260903072838 64 187 0.0 0.0 0.00 0.00 0.00 76 1013.7
20260903072356 64 187 0.0 0.0 0.00 0.00 0.00 76 1013.7
20260903071833 64 196 0.0 0.0 0.00 0.00 0.00 76 1013.7
20260903071327 64 196 0.0 0.0 0.00 0.00 0.00 76 1013.7
20260903070829 64 195 0.0 0.0 0.00 0.00 0.00 76 1013.6
20260903070326 64 195 0.0 0.0 0.00 0.00 0.00 76 1013.5
20260903065824 64 195 0.0 0.0 0.00 0.00 0.00 75 1013.5
20260903065343 64 195 0.0 0.0 0.00 0.00 0.00 75 1013.6
20260903064834 65 195 0.0 0.0 0.00 0.00 0.00 75 1013.6
20260903064352 65 195 0.0 0.0 0.00 0.00 0.00 75 1013.6
20260903063828 65 195 0.0 0.0 0.00 0.00 0.00 75 1013.7
20260903063324 65 195 0.0 0.0 0.00 0.00 0.00 75 1013.6
20260903062822 65 195 0.0 0.0 0.00 0.00 0.00 75 1013.6
20260903062325 65 196 0.0 0.0 0.00 0.00 0.00 75 1013.5
20260903061842 65 195 0.0 0.0 0.00 0.00 0.00 75 1013.6
20260903061321 65 196 0.0 0.0 0.00 0.00 0.00 75 1013.6
20260903060839 65 195 0.0 0.0 0.00 0.00 0.00 75 1013.6
20260903060337 65 195 0.0 0.0 0.00 0.00 0.00 75 1013.6
20260903055843 65 195 0.0 0.0 0.00 0.00 0.00 75 1013.5
20260903055320 65 195 0.0 0.0 0.00 0.00 0.00 75 1013.5
20260903054821 65 196 0.0 0.0 0.00 0.00 0.00 74 1013.5
20260903052334 65 196 0.0 0.0 0.00 0.00 0.00 73 1013.4
20260903045831 66 195 0.0 0.0 0.00 0.00 0.00 72 1013.4
20260903044334 66 195 0.0 0.0 0.00 0.00 0.00 71 1013.3
20260903042847 67 196 0.0 0.0 0.00 0.00 0.00 70 1013.3
20260903042336 67 196 0.0 0.0 0.00 0.00 0.00 70 1013.3
20260903041836 67 196 0.0 0.0 0.00 0.00 0.00 70 1013.3
20260903035843 68 196 0.0 0.0 0.00 0.00 0.00 67 1013.1
20260903034346 69 196 0.0 0.0 0.00 0.00 0.00 65 1012.9
20260903033844 69 196 0.0 0.0 0.00 0.00 0.00 64 1012.9
20260903032819 70 195 0.0 0.0 0.00 0.00 0.00 64 1012.8
20260903031822 71 196 0.0 0.0 0.00 0.00 0.00 62 1012.7
20260903031325 71 196 0.0 0.0 0.00 0.00 0.00 62 1012.7
20260903030343 72 255 0.0 0.0 0.00 0.00 0.00 60 1012.6
20260903025905 72 255 0.0 0.0 0.00 0.00 0.00 59 1012.7
20260903025328 73 255 0.0 0.0 0.00 0.00 0.00 57 1012.5
20260903024831 73 254 0.0 0.0 0.00 0.00 0.00 55 1012.6
20260903023919 74 255 0.0 0.0 0.00 0.00 0.00 54 1012.5
20260903022839 74 179 0.0 1.0 0.00 0.00 0.00 53 1012.4
20260903020920 76 253 0.0 2.0 0.00 0.00 0.00 52 1012.4
20260903020326 76 254 0.0 3.0 0.00 0.00 0.00 51 1012.3
20260903015827 77 267 1.0 3.0 0.00 0.00 0.00 51 1012.3
20260903014321 77 263 1.0 4.0 0.00 0.00 0.00 52 1012.2
20260903012824 79 271 1.0 2.0 0.00 0.00 0.00 51 1012.1
20260903012331 79 245 0.0 3.0 0.00 0.00 0.00 51 1012.2
20260903011328 79 234 2.0 4.0 0.00 0.00 0.00 51 1012.2
20260903010329 80 260 1.0 3.0 0.00 0.00 0.00 50 1012.2
20260903005909 80 269 1.0 4.0 0.00 0.00 0.00 50 1012.2
20260903005827 80 269 1.0 4.0 0.00 0.00 0.00 50 1012.2
20260903005327 80 268 1.0 4.0 0.00 0.00 0.00 50 1012.2
20260903004837 80 264 1.0 7.0 0.00 0.00 0.00 50 1012.2
20260903004328 80 273 3.0 7.0 0.00 0.00 0.00 50 1012.2
20260903003849 80 263 2.0 5.0 0.00 0.00 0.00 50 1012.2
20260903003331 80 263 2.0 7.0 0.00 0.00 0.00 50 1012.1
20260903001824 81 214 1.0 3.0 0.00 0.00 0.00 49 1012.2
20260903001332 81 255 0.0 4.0 0.00 0.00 0.00 49 1012.1
20260903000830 81 155 2.0 5.0 0.00 0.00 0.00 48 1012.3
20260903000410 81 264 1.0 5.0 0.00 0.00 0.00 49 1012.2
20260902234832 81 155 1.0 6.0 0.00 0.00 0.00 49 1012.3
20260902234332 81 264 2.0 6.0 0.00 0.00 0.00 48 1012.3
20260902233830 82 167 1.0 6.0 0.00 0.00 0.00 48 1012.4
20260902232346 82 262 3.0 6.0 0.00 0.00 0.00 48 1012.4
20260902231338 82 259 3.0 11.0 0.00 0.00 0.00 48 1012.4
20260902230858 82 207 4.0 11.0 0.00 0.00 0.00 48 1012.5
20260902230334 82 208 2.0 7.0 0.00 0.00 0.00 48 1012.5
20260902225915 82 248 2.0 9.0 0.00 0.00 0.00 47 1012.6
20260902225350 82 262 3.0 9.0 0.00 0.00 0.00 48 1012.6
20260902224908 83 250 2.0 4.0 0.00 0.00 0.00 46 1012.6
20260902223845 83 221 4.0 10.0 0.00 0.00 0.00 46 1012.6
20260902223337 84 254 2.0 8.0 0.00 0.00 0.00 45 1012.7
20260902222824 85 186 4.0 7.0 0.00 0.00 0.00 42 1012.7
20260902222343 84 271 1.0 5.0 0.00 0.00 0.00 38 1012.8
20260902220825 84 233 3.0 7.0 0.00 0.00 0.00 38 1012.9
20260902220332 84 186 1.0 8.0 0.00 0.00 0.00 38 1012.9
20260902215834 84 152 3.0 7.0 0.00 0.00 0.00 37 1013.0
20260902215334 84 136 2.0 6.0 0.00 0.00 0.00 38 1013.0
20260902214835 84 177 2.0 6.0 0.00 0.00 0.00 38 1013.1
20260902214336 84 266 2.0 6.0 0.00 0.00 0.00 39 1013.2
20260902213835 84 271 0.0 7.0 0.00 0.00 0.00 36 1013.3
20260902213335 84 207 3.0 7.0 0.00 0.00 0.00 36 1013.4
20260902212410 85 282 1.0 7.0 0.00 0.00 0.00 36 1013.4
20260902212328 85 282 1.0 7.0 0.00 0.00 0.00 36 1013.4
20260902211327 83 155 3.0 7.0 0.00 0.00 0.00 36 1013.4
20260902210846 84 269 2.0 4.0 0.00 0.00 0.00 37 1013.5
20260902210325 83 40 2.0 8.0 0.00 0.00 0.00 38 1013.6
20260902205824 84 283 3.0 8.0 0.00 0.00 0.00 39 1013.7
20260902205321 84 150 2.0 4.0 0.00 0.00 0.00 39 1013.7
20260902204821 84 220 2.0 5.0 0.00 0.00 0.00 36 1013.8
20260902204343 85 153 2.0 5.0 0.00 0.00 0.00 38 1013.8
20260902203819 84 217 0.0 4.0 0.00 0.00 0.00 40 1013.8
20260902203318 84 231 1.0 4.0 0.00 0.00 0.00 40 1013.8
20260902202838 83 237 1.0 4.0 0.00 0.00 0.00 40 1013.9
20260902202336 83 113 1.0 4.0 0.00 0.00 0.00 41 1014.0
20260902201832 83 240 2.0 7.0 0.00 0.00 0.00 40 1014.0
20260902201335 83 249 3.0 7.0 0.00 0.00 0.00 41 1014.1
20260902200327 83 162 2.0 6.0 0.00 0.00 0.00 40 1014.2
20260902195826 83 141 1.0 4.0 0.00 0.00 0.00 43 1014.2
20260902195337 83 148 2.0 4.0 0.00 0.00 0.00 43 1014.2
20260902194335 82 158 1.0 3.0 0.00 0.00 0.00 38 1014.3
20260902193856 82 231 1.0 5.0 0.00 0.00 0.00 37 1014.5
20260902192853 81 304 3.0 6.0 0.00 0.00 0.00 40 1014.6
20260902192332 81 156 2.0 6.0 0.00 0.00 0.00 42 1014.6
20260902191832 81 139 3.0 6.0 0.00 0.00 0.00 41 1014.7
20260902191329 82 283 1.0 4.0 0.00 0.00 0.00 39 1014.7
20260902190849 82 187 2.0 4.0 0.00 0.00 0.00 38 1014.8
20260902184858 80 145 1.0 5.0 0.00 0.00 0.00 42 1014.9
20260902184333 80 157 0.0 6.0 0.00 0.00 0.00 44 1014.9
20260902183852 80 166 2.0 6.0 0.00 0.00 0.00 43 1014.9
20260902181853 79 166 2.0 4.0 0.00 0.00 0.00 47 1015.0
20260902181331 79 167 2.0 4.0 0.00 0.00 0.00 48 1015.1
20260902180826 78 134 2.0 4.0 0.00 0.00 0.00 50 1015.0
20260902180325 78 157 2.0 5.0 0.00 0.00 0.00 49 1014.9
20260902175825 78 139 2.0 5.0 0.00 0.00 0.00 50 1015.0
20260902175324 77 152 2.0 5.0 0.00 0.00 0.00 53 1015.0
20260902174821 76 123 2.0 5.0 0.00 0.00 0.00 53 1015.0
20260902173337 76 108 0.0 2.0 0.00 0.00 0.00 55 1015.1
20260902172835 75 214 1.0 6.0 0.00 0.00 0.00 55 1015.1
20260902172326 75 167 2.0 6.0 0.00 0.00 0.00 57 1015.0
20260902171825 74 192 2.0 4.0 0.00 0.00 0.00 59 1015.0